Weather History for KGFL - March, 2013

Change the Weather History Date:

Saturday, March 23, 2013

  Actual Average Record
Temperature  
Mean Temperature 31 °F 34 °F  
Max Temperature 40 °F 45 °F 70 °F (1979)
Min Temperature 22 °F 23 °F 9 °F (1971)
Degree Days  
Heating Degree Days 34 31  
Month to date heating degree days 760 814  
Since 1 July heating degree days 5861 6434  
Cooling Degree Days 0 0  
Month to date cooling degree days 0 0  
Year to date cooling degree days 0 0  
Moisture  
Dew Point 17 °F    
Average Humidity 58    
Maximum Humidity 81    
Minimum Humidity 34    
Precipitation  
Precipitation T in 0.11 in 0.88 in (1968)
Month to date precipitation 2.81 2.19  
Year to date precipitation 5.11 7.13  
Sea Level Pressure  
Sea Level Pressure 29.80 in    
Wind  
Wind Speed 11 mph (West)    
Max Wind Speed 26 mph    
Max Gust Speed 36 mph    
Visibility 10 miles    
Events Snow    
T = Trace of Precipitation, MM = Missing Value Source: NWS Daily Summary

Daily Weather History Graph

Daily Weather History Graph

Search for Another Location

Airport or City:

Trip Planner

Search our weather history database for the weather conditions in past years. The results will help you decide how hot, cold, wet, or windy it might be!

Date:

Astronomy

Mar. 23, 2013 Rise Set
Actual Time 6:51 AM EDT 7:10 PM EDT
Civil Twilight 6:23 AM EDT 7:39 PM EDT
Nautical Twilight 5:49 AM EDT 8:12 PM EDT
Astronomical Twilight 5:15 AM EDT 8:47 PM EDT
Moon 3:29 PM EDT (3/23) 4:32 AM EDT (3/23)
Length of Visible Light 13h 15m
Length of Day
12h 18m
Waxing Gibbous, 85% of the Moon is Illuminated
Mar 23
Waxing Gibbous
Mar 27
Full
Apr 3
Last Quarter
Apr 10
New
Apr 18
First Quarter

Hourly Weather History & Observations

Time (EDT) Temp. Windchill Dew Point Humidity Pressure Visibility Wind Dir Wind Speed Gust Speed Precip Events Conditions
12:53 AM 24.1 °F - 16.0 °F 71% 29.81 in 10.0 mi Calm Calm - N/A   Mostly Cloudy
1:53 AM 28.0 °F 20.8 °F 19.0 °F 69% 29.79 in 10.0 mi SW 6.9 mph - N/A   Overcast
2:53 AM 26.1 °F - 19.0 °F 75% 29.78 in 10.0 mi Calm Calm - N/A   Overcast
3:53 AM 27.0 °F 23.0 °F 19.0 °F 72% 29.76 in 10.0 mi WSW 3.5 mph - N/A   Mostly Cloudy
4:53 AM 27.0 °F 21.6 °F 19.0 °F 72% 29.77 in 10.0 mi SW 4.6 mph - N/A   Mostly Cloudy
5:40 AM 28.4 °F 23.3 °F 19.4 °F 69% 29.74 in 7.0 mi SW 4.6 mph - 0.00 in Snow Light Snow
5:53 AM 27.0 °F 21.6 °F 18.0 °F 69% 29.76 in 10.0 mi SSW 4.6 mph - 0.00 in   Scattered Clouds
6:53 AM 23.0 °F 17.0 °F 17.1 °F 78% 29.76 in 10.0 mi SW 4.6 mph - N/A   Partly Cloudy
7:53 AM 25.0 °F 20.7 °F 18.0 °F 75% 29.79 in 10.0 mi ENE 3.5 mph - N/A   Overcast
8:53 AM 32.0 °F 20.5 °F 17.1 °F 54% 29.78 in 10.0 mi NW 18.4 mph - N/A   Scattered Clouds
9:53 AM 34.0 °F 25.0 °F 16.0 °F 48% 29.77 in 10.0 mi WNW 12.7 mph 24.2 mph N/A   Overcast
10:53 AM 36.0 °F 29.6 °F 17.1 °F 46% 29.78 in 10.0 mi WNW 8.1 mph 21.9 mph N/A   Overcast
11:53 AM 37.0 °F 27.4 °F 16.0 °F 42% 29.77 in 10.0 mi NW 17.3 mph 31.1 mph N/A   Mostly Cloudy
12:53 PM 37.9 °F 27.6 °F 16.0 °F 41% 29.77 in 10.0 mi NW 20.7 mph 34.5 mph N/A   Mostly Cloudy
1:53 PM 37.9 °F 27.6 °F 15.1 °F 39% 29.77 in 10.0 mi NW 20.7 mph 31.1 mph N/A   Overcast
2:53 PM 39.9 °F 30.5 °F 14.0 °F 35% 29.76 in 10.0 mi West 19.6 mph 34.5 mph N/A   Partly Cloudy
3:53 PM 37.9 °F 29.2 °F 16.0 °F 41% 29.77 in 10.0 mi West 15.0 mph 25.3 mph N/A   Scattered Clouds
4:53 PM 37.9 °F 29.6 °F 17.1 °F 43% 29.80 in 10.0 mi WNW 13.8 mph - N/A   Overcast
5:53 PM 37.0 °F 27.4 °F 18.0 °F 46% 29.81 in 10.0 mi WNW 17.3 mph 27.6 mph N/A   Overcast
6:53 PM 36.0 °F 27.1 °F 16.0 °F 44% 29.84 in 10.0 mi WNW 13.8 mph 24.2 mph N/A   Overcast
7:53 PM 35.1 °F 26.4 °F 18.0 °F 50% 29.85 in 10.0 mi WNW 12.7 mph 17.3 mph N/A   Overcast
8:53 PM 35.1 °F 24.8 °F 18.0 °F 50% 29.86 in 10.0 mi WNW 17.3 mph 20.7 mph N/A   Overcast
9:53 PM 33.1 °F 26.9 °F 18.0 °F 54% 29.87 in 10.0 mi WNW 6.9 mph - N/A   Mostly Cloudy
10:53 PM 34.0 °F 26.6 °F 17.1 °F 50% 29.88 in 10.0 mi WNW 9.2 mph - N/A   Overcast
11:53 PM 35.1 °F 26.4 °F 18.0 °F 50% 29.88 in 10.0 mi West 12.7 mph 18.4 mph N/A   Overcast